Date,TemperatureHighF,TemperatureAvgF,TemperatureLowF,DewpointHighF,DewpointAvgF,DewpointLowF,HumidityHigh,HumidityAvg,HumidityLow,PressureMaxIn,PressureMinIn,WindSpeedMaxMPH,WindSpeedAvgMPH,GustSpeedMaxMPH,PrecipitationSumIn
2013-12-1,71,64,60,64,61,59,97,91,76,30.31,30.08,15,5,15,0.00
2013-12-2,71,64,59,62,58,53,97,83,56,30.08,29.93,17,1,18,0.00
2013-12-3,76,66,58,62,59,55,92,79,58,30.10,29.99,11,0,12,0.00
2013-12-4,79,70,63,69,64,61,94,82,63,30.19,30.07,7,0,8,0.00
2013-12-5,80,72,64,68,66,62,95,82,61,30.28,30.18,10,1,12,0.00
2013-12-6,84,74,67,71,68,65,96,83,62,30.28,30.18,18,1,19,0.00
2013-12-7,81,73,66,69,66,63,94,80,56,30.35,30.24,7,0,8,0.00
2013-12-8,81,73,67,71,67,64,96,82,57,30.34,30.21,15,2,17,0.00
2013-12-9,82,73,66,71,67,64,95,82,64,30.30,30.18,14,1,16,0.00
2013-12-10,82,73,65,70,66,62,94,79,55,30.30,30.16,21,2,22,0.00
2013-12-11,78,67,59,68,62,54,93,82,66,30.37,30.25,21,6,24,0.00
2013-12-12,66,61,54,62,50,33,95,70,33,30.43,30.31,21,11,23,0.00
2013-12-13,71,61,50,58,53,45,92,77,58,30.40,30.24,15,4,15,0.00
2013-12-14,80,71,63,70,66,57,89,82,70,30.24,30.03,20,3,22,0.01
2013-12-15,74,66,56,70,62,52,94,86,75,30.24,29.96,26,3,27,0.14
2013-12-16,61,54,45,52,46,38,93,77,47,30.35,30.23,21,6,21,0.00
2013-12-17,70,56,47,54,48,44,91,74,56,30.37,30.26,13,2,13,0.00
2013-12-18,66,56,46,50,46,40,83,69,50,30.40,30.31,18,3,19,0.00
2013-12-19,73,61,53,59,53,46,83,74,51,30.40,30.28,11,2,12,0.00
2013-12-20,80,68,58,64,60,55,91,76,56,30.32,30.21,16,3,16,0.00
2013-12-21,83,73,65,71,67,62,95,83,63,30.25,30.12,26,4,26,0.00
2013-12-22,83,74,67,72,69,66,96,83,66,30.24,30.17,23,2,26,0.00
2013-12-23,84,75,67,73,69,66,97,84,60,30.27,30.17,16,1,20,0.00
2013-12-24,72,62,53,70,53,34,95,74,33,30.38,30.19,24,9,25,0.11
2013-12-25,66,52,46,56,46,41,86,78,66,30.37,30.31,18,6,18,0.00
2013-12-29,74,73,72,70,70,69,91,90,90,30.06,30.04,15,3,16,0.00